Location: ??????????
(54.8537°N, 38.8755°E)
Time: 10:46:47
(UTC+00:00)

Tiros 1 despin weight - Pass Details

Date: 13 September 2024
Orbit: 572 x 614 km, 48.2° (Epoch: 10 October)

Event Time Altitude Azimuth Distance (km) Brightness Sun altitude
Rises 06:54:07 0° 270° (W) 2,891 ? 30.8°
Reaches altitude 10° 06:57:13 10° 249° (WSW) 1,979 ? 31.1°
Maximum altitude 06:59:55 16° 212° (SSW) 1,633 ? 31.4°
Drops below altitude 10° 07:02:35 10° 176° (S) 1,963 ? 31.7°
Sets 07:05:39 0° 154° (SSE) 2,855 ? 31.9°
